Location: Erlenbrunn
(49.1717°N, 7.6142°E)
Time: 05:17:40
(UTC+00:00)

CZ-4B R/B - Pass Details

Date: 25 November 2020
Orbit: 809 x 881 km, 99.1° (Epoch: 24 January)

Event Time Altitude Azimuth Distance (km) Brightness Sun altitude
Rises 17:23:07 0° 183° (S) 3,354 6.5 -16.7°
Reaches altitude 10° 17:25:35 10° 190° (S) 2,416 5.9 -17.1°
Maximum altitude 17:30:39 43° 261° (W) 1,139 4.4 -17.9°
Drops below altitude 10° 17:35:42 10° 333° (NNW) 2,409 5.8 -18.7°
Sets 17:38:10 0° 340° (NNW) 3,343 6.4 -19.1°
